FW9692 Weather Reports


time (UTC)temp
C
wind
direction
speed
KPH
gust
KPH
rain 1hr
cm
rain 24hr
cm
rain mn
cm
humidity
%
barometer
mb
20260509034530 22 244 22.5 30.6 0.00 0.00 0.00 34 1000.1
20260509033026 23 227 24.1 30.6 0.00 0.00 0.00 33 1000.0
20260509031537 23 228 24.1 35.4 0.00 0.00 0.00 33 999.8
20260509024519 24 228 27.4 33.8 0.00 0.00 0.00 30 999.7
20260509023021 25 225 25.7 35.4 0.00 0.00 0.00 29 999.7
20260509021520 25 223 27.4 38.6 0.00 0.00 0.00 26 999.6
20260509014530 26 194 27.4 37.0 0.00 0.00 0.00 25 999.0
20260509004517 27 178 27.4 37.0 0.00 0.00 0.00 28 998.4
20260509003012 28 165 17.7 27.4 0.00 0.00 0.00 18 998.3
20260509001512 28 147 17.7 29.0 0.00 0.00 0.00 17 998.3
20260509000109 28 153 17.7 24.1 0.00 0.00 0.00 18 998.3
20260508234516 28 146 17.7 24.1 0.00 0.00 0.00 19 998.4
20260508233016 28 196 6.4 14.5 0.00 0.00 0.00 18 998.4
20260508231514 28 115 6.4 17.7 0.00 0.00 0.00 18 998.4
20260508230114 28 178 3.2 25.7 0.00 0.00 0.00 18 998.3
20260508224642 28 98 17.7 27.4 0.00 0.00 0.00 18 998.3
20260508223059 28 124 8.0 16.1 0.00 0.00 0.00 17 998.3
20260508221557 28 339 14.5 22.5 0.00 0.00 0.00 17 998.3
20260508220057 28 15 14.5 25.7 0.00 0.00 0.00 17 998.6
20260508214510 28 330 6.4 16.1 0.00 0.00 0.00 18 998.7
20260508213018 28 44 4.8 16.1 0.00 0.00 0.00 21 998.8
20260508211503 27 123 17.7 24.1 0.00 0.00 0.00 22 998.8
20260508204553 27 28 14.5 27.4 0.00 0.00 0.00 29 999.0
20260508203100 26 51 17.7 25.7 0.00 0.00 0.00 33 999.3
20260508201552 26 17 16.1 24.1 0.00 0.00 0.00 38 999.6
20260508200044 25 90 17.7 29.0 0.00 0.00 0.00 39 999.8
20260508194600 25 40 12.9 25.7 0.00 0.00 0.00 47 1000.0
20260508193103 24 25 8.0 24.1 0.00 0.00 0.00 49 1000.3
20260508191553 23 15 11.3 19.3 0.00 0.00 0.00 51 1000.4
20260508190050 23 43 9.7 20.9 0.00 0.00 0.00 55 1000.8
20260508184546 22 51 8.0 17.7 0.00 0.00 0.00 57 1001.1
20260508183044 22 102 12.9 17.7 0.00 0.00 0.00 61 1001.3
20260508181536 21 128 1.6 17.7 0.00 0.00 0.00 64 1001.4
20260508180037 20 9 8.0 20.9 0.00 0.00 0.00 67 1001.8
20260508174533 20 115 8.0 17.7 0.00 0.00 0.00 69 1001.9
20260508173027 19 119 9.7 16.1 0.00 0.00 0.00 71 1002.1
20260508171529 18 96 4.8 19.3 0.00 0.00 0.00 73 1002.3
20260508170025 18 178 4.8 17.7 0.00 0.00 0.00 73 1002.6
20260508164527 18 104 3.2 20.9 0.00 0.00 0.00 74 1002.5
20260508163031 18 119 4.8 19.3 0.00 0.00 0.00 75 1002.7
20260508161522 17 51 4.8 9.7 0.00 0.00 0.00 78 1002.9
20260508160023 16 80 4.8 16.1 0.00 0.00 0.00 81 1003.2
20260508154508 16 49 8.0 14.5 0.00 0.00 0.00 82 1003.3
20260508153005 15 36 4.8 11.3 0.00 0.00 0.00 84 1003.3
20260508151504 15 51 3.2 8.0 0.00 0.00 0.00 85 1003.4
20260508150010 15 49 4.8 19.3 0.00 0.00 0.00 85 1003.5
20260508144508 14 16 1.6 12.9 0.00 0.00 0.00 86 1003.5
20260508143010 14 28 3.2 9.7 0.00 0.00 0.00 86 1003.5
20260508141508 14 55 6.4 16.1 0.00 0.00 0.00 86 1003.5
20260508140009 14 64 9.7 14.5 0.00 0.00 0.00 85 1003.5
20260508134559 14 59 4.8 9.7 0.00 0.00 0.00 85 1003.5
20260508133108 13 178 0.0 3.2 0.00 0.00 0.00 85 1003.5
20260508133003 13 119 0.0 3.2 0.00 0.00 0.00 85 1003.5
20260508131602 13 41 6.4 11.3 0.00 0.00 0.00 84 1003.4
20260508130100 14 93 9.7 16.1 0.00 0.00 0.00 83 1003.2
20260508124525 13 117 4.8 11.3 0.00 0.00 0.00 83 1002.9
20260508123025 13 88 3.2 9.7 0.00 0.00 0.00 82 1002.7
20260508121525 13 84 8.0 11.3 0.00 0.00 0.00 81 1002.5
20260508114510 13 137 4.8 9.7 0.00 0.00 0.00 80 1002.5
20260508113009 14 137 4.8 11.3 0.00 0.00 0.00 79 1002.6
20260508111507 14 121 4.8 14.5 0.00 0.00 0.00 80 1002.3
20260508110006 14 139 9.7 20.9 0.00 0.00 0.00 81 1002.3
20260508104555 15 150 14.5 19.3 0.00 0.00 0.00 80 1002.3
20260508103153 14 138 17.7 24.1 0.00 0.00 0.00 80 1002.4
20260508101553 15 163 17.7 22.5 0.00 0.00 0.00 79 1002.8
20260508100049 14 156 11.3 17.7 0.00 0.00 0.00 77 1002.9
20260508094557 14 150 8.0 12.9 0.00 0.00 0.00 76 1003.2
20260508093054 14 142 17.7 22.5 0.00 0.00 0.00 75 1002.8
20260508091607 14 137 16.1 20.9 0.00 0.00 0.00 74 1002.5
20260508090055 15 131 12.9 16.1 0.00 0.00 0.00 71 1002.7
20260508084522 15 121 12.9 17.7 0.00 0.00 0.00 70 1003.0
20260508083020 15 128 6.4 17.7 0.00 0.00 0.00 69 1003.2
20260508081525 15 65 11.3 16.1 0.00 0.00 0.00 69 1002.9
20260508080029 15 171 8.0 11.3 0.00 0.00 0.00 68 1003.7
20260508074536 15 150 6.4 12.9 0.00 0.00 0.00 68 1003.9
20260508073033 15 132 9.7 16.1 0.00 0.00 0.00 69 1004.0
20260508071532 15 123 12.9 16.1 0.00 0.00 0.00 67 1004.0
20260508070031 16 110 6.4 14.5 0.00 0.00 0.00 67 1004.1
20260508064543 16 119 6.4 14.5 0.00 0.00 0.00 67 1003.8
20260508063032 16 124 8.0 14.5 0.00 0.00 0.00 67 1003.9
20260508061536 16 123 3.2 4.8 0.00 0.00 0.00 66 1003.9
20260508060032 16 148 8.0 14.5 0.00 0.00 0.00 66 1004.1
20260508054538 16 160 14.5 20.9 0.00 0.00 0.00 65 1004.0
20260508053025 16 163 19.3 24.1 0.00 0.00 0.00 65 1004.1
20260508051530 16 168 24.1 30.6 0.00 0.00 0.00 64 1004.1
20260508050023 17 173 25.7 33.8 0.00 0.00 0.00 64 1003.8
20260508044526 17 157 27.4 33.8 0.00 0.00 0.00 63 1003.8
20260508043025 17 144 27.4 35.4 0.00 0.00 0.00 62 1004.1
20260508041524 17 147 24.1 32.2 0.00 0.00 0.00 61 1004.2
20260508040039 17 153 30.6 40.2 0.00 0.00 0.00 59 1004.2